Flag for U.S.A. Weather past 2 weeks in Concord, California, U.S.A.

Now
52 °F

Overcast.


Feels Like: 52 °F
Forecast: 49 / 57 °F
Wind: 3 mph from Southeast

Location: Buchanan Field

Current Time: Dec 18, 2014 at 12:04:59 AM

Latest Report: Dec 17, 2014 at 10:53 PM


Visibility: 10 mi

Pressure: 30.04 "Hg

Humidity: 83%

Dew point: 47 °F

Location of ConcordLocation

Historic Weather in Concord — Graph

°F

Concord temperature yesterday

Maximum temperature yesterday: 60 °F (at 12:53 PM)
Minimum temperature yesterday: 50 °F (at 5:53 AM)
Average temperature yesterday: 54 °F

Past Weeks' High & Low Weather Summary

 TemperatureHumidityPressure
High68 °F (Dec 4, 12:53 PM)97% (Dec 3, 12:53 AM)30.23 "Hg (Dec 3, 12:53 AM)
Low45 °F (Dec 13, 2:00 AM)54% (Dec 16, 1:53 PM)29.46 "Hg (Dec 11, 7:53 AM)
Average56 °F85%29.96 "Hg
* Reported Dec 2 10:53 PM — Dec 17 10:53 PM, Concord, Weather by CustomWeather, © 2014

Note: Actual official high and low records may vary slightly from our data, if they occured in-between our weather recording intervals... More about our weather records

Advertising

Concord weather history for previous 24 hours

 ConditionsComfort  
Time TempWeatherWind HumidityBarometerVisibility
10:53 PM
Dec 17
52 °FOvercast.3 mph83%30.04 "Hg10 mi
9:53 PM52 °FMostly cloudy.3 mph89%30.03 "Hg10 mi
8:53 PM52 °FLight rain. Overcast.5 mph86%30.03 "Hg8 mi
7:53 PM52 °FLight rain. Overcast.5 mph86%30.03 "Hg7 mi
6:53 PM53 °FRain. Fog.5 mph86%30.02 "Hg6 mi
5:53 PM54 °FRain. Mostly cloudy.7 mph80%30.01 "Hg6 mi
4:53 PM55 °FLight rain. Overcast.5 mph83%30.01 "Hg10 mi
3:53 PM58 °FLight rain. Broken clouds.6 mph70%29.99 "Hg10 mi
2:53 PM59 °FPartly sunny.12 mph62%29.97 "Hg10 mi
1:53 PM59 °FBroken clouds.9 mph60%29.98 "Hg10 mi
12:53 PM60 °FPartly sunny.8 mph62%30.01 "Hg10 mi
11:53 AM59 °FScattered clouds.9 mph69%30.01 "Hg10 mi
10:53 AM56 °FPartly sunny.7 mph77%30.03 "Hg10 mi
9:53 AM55 °FMore clouds than sun.9 mph80%30.03 "Hg10 mi
8:53 AM53 °FOvercast.8 mph80%30.00 "Hg10 mi
7:53 AM51 °FMore clouds than sun.6 mph86%29.98 "Hg10 mi
6:53 AM50 °FMostly cloudy.7 mph86%29.96 "Hg10 mi
5:53 AM50 °FPassing clouds.10 mph86%29.95 "Hg10 mi
4:53 AM51 °FMostly cloudy.3 mph86%29.93 "Hg10 mi
3:53 AM52 °FOvercast.9 mph83%29.93 "Hg10 mi
2:53 AM51 °FMostly cloudy.8 mph86%29.93 "Hg10 mi
1:53 AM51 °FMostly cloudy.9 mph83%29.91 "Hg10 mi
12:53 AM51 °FPartly cloudy.10 mph80%29.90 "Hg10 mi
Weather by CustomWeather, © 2014

See weather overviewHow to use our weather pages